Content
SEND FEEDBACK

Daily
Averages
Monthly
Summary
United Kingdom

WINCHESTER, ENGLAND


Home > Europe > United Kingdom > England
Elevation: 297 feet     Latitude: 51 09N     Longitude: 001 34W

WEATHER
 
SELECT A DAY
Number of Records: 60,480;   Date Range: 10/20/98 - 9/22/14
 
SHARE

PRINT THIS DATA

[ ← Previous Day ]
WEATHER ALMANAC - APRIL 4, 2013
[ Next Day → ]
[ °C ]   °F
Weather ElementAverageHighLow
Temperature35.7 °F38 °F (6:50 pm)32 °F (2:50 am)
Dewpoint25.1 °F29 °F (3:50 am)19 °F (9:50 pm)
Humidity63.8 %87 % (2:50 am)34 % (9:50 pm)
Barometer29.94 in29.98 in (12:50 am)29.89 in (4:50 pm)
Wind Speed15.5 mph20.7 mph (6:50 pm)
Wind Gust29.9 mph (4:50 pm)
Weather ElementAverage
Visibility7.6 mi
Wind DirectionNNE (29.7 °)

Weather ElementTotal
Precipitation---
Heating Degree Days30 (Base 65)
Averaged from 31 records on April 4, 2013
WEATHER CONDITIONS BREAKOUT
WIND DIRECTION BREAKOUT
WEATHER BY HOUR - APRIL 4, 2013
[ °C ]   °F
Local TimeTemperatureDewpointHumidityBarometerVisibilityWind DirectionWind SpeedGust SpeedPrecipitationEventsConditions
12:50 AM33.8 °F26.6 °F75 %29.98 in6.2 miNNE (30°)12.7 mphOvercast
1:50 AM33.8 °F26.6 °F75 %29.98 in6.2 miNNE (20°)12.7 mphOvercast
2:50 AM32.0 °F28.4 °F87 %29.95 in6.2 miNNE (30°)10.4 mphMostly Cloudy
3:50 AM33.0 °F29.0 °F77 %29.97 in12.0 miNNE (20°)11.5 mphMostly Cloudy
3:50 AM33.8 °F28.4 °F81 %29.95 in6.2 miNNE (20°)11.5 mphMostly Cloudy
4:50 AM33.8 °F28.4 °F81 %29.95 in6.2 miNNE (20°)13.8 mphMostly Cloudy
5:50 AM33.8 °F28.4 °F81 %29.95 in6.2 miNNE (20°)13.8 mphOvercast
6:50 AM33.8 °F28.4 °F81 %29.95 in6.2 miNNE (20°)13.8 mphMostly Cloudy
6:50 AM33.0 °F28.0 °F73 %29.96 in9.0 miNNE (20°)13.8 mphOvercast
7:50 AM33.8 °F28.4 °F81 %29.95 in6.2 miNNE (30°)13.8 mphOvercast
8:50 AM35.6 °F26.6 °F70 %29.95 in6.2 miNNE (30°)15.0 mphMostly Cloudy
9:50 AM36.0 °F25.0 °F54 %29.96 in9.0 miNE (40°)16.1 mphOvercast
9:50 AM35.6 °F24.8 °F65 %29.95 in6.2 miNE (40°)16.1 mphOvercast
10:50 AM37.4 °F21.2 °F52 %29.92 in6.2 miNE (40°)19.6 mphOvercast
11:50 AM37.4 °F23.0 °F56 %29.95 in6.2 miNNE (30°)16.1 mphSnowLight Snow
12:50 PM35.6 °F26.6 °F70 %29.95 in6.2 miNE (40°)18.4 mphSnowLight Snow
12:50 PM36.0 °F26.0 °F55 %29.97 in7.0 miNE (40°)18.4 mphSnowLight Snow
1:50 PM35.6 °F26.6 °F70 %29.92 in6.2 miNNE (30°)17.3 mphSnowLight Snow
2:50 PM37.4 °F23.0 °F56 %29.92 in6.2 miNNE (30°)19.6 mphSnowLight Snow
3:50 PM37.0 °F24.0 °F47 %29.93 in12.0 miNNE (30°)19.6 mphSnowLight Snow
3:50 PM37.4 °F24.8 °F60 %29.92 in6.2 miNNE (30°)19.6 mphSnowLight Snow
4:50 PM37.4 °F24.8 °F60 %29.89 in5.0 miNNE (30°)17.3 mph29.9 mphSnowLight Snow
5:50 PM37.4 °F24.8 °F60 %29.92 in6.2 miNNE (30°)16.1 mphOvercast
6:50 PM37.4 °F23.0 °F56 %29.92 in6.2 miNNE (30°)20.7 mphMostly Cloudy
6:50 PM38.0 °F22.0 °F40 %29.94 in16.0 miNNE (30°)20.7 mphSnowLight Snow
7:50 PM37.4 °F23.0 °F56 %29.92 in6.2 miNE (50°)16.1 mphOvercast
8:50 PM37.4 °F19.4 °F48 %29.92 inNNE (30°)12.7 mphClear
9:50 PM37.0 °F19.0 °F34 %29.96 in19.0 miNNE (30°)13.8 mphPartly Cloudy
9:50 PM37.4 °F19.4 °F48 %29.95 inNNE (30°)13.8 mphClear
10:50 PM35.6 °F23.0 °F60 %29.95 inNNE (20°)12.7 mphClear
11:50 PM35.6 °F26.6 °F70 %29.95 in6.2 miNNE (30°)13.8 mphScattered Clouds
Hourly data recorded from EGVP, located miles away from Winchester, England







STORIES FROM OUR PARTNERS